Temperature
9 9 9 8 8 8 8 8 8 8 8 8 8 8 8 8 8 8 9 9 8 8 8 8 8 7 6 6 6 6 6 7 7 7 7 7 7 7 7 7 7 7 7
9 8 8 8 8 8 8 8 7 7 7 8 8 8 8 8 8 8 8 9 9 8 8 8 8 8 7 6 6 6 6 6 6 6 6 6 6 6 6 6 6 6 6
8 8 8 8 8 8 8 7 7 7 7 7 7 8 8 8 8 8 8 8 9 9 9 8 8 8 8 7 6 6 5 5 6 6 6 6 6 6 6 6 6 6 5
8 8 8 8 7 7 7 7 7 7 7 7 7 7 7 7 8 8 8 8 8 9 9 9 8 8 8 8 7 7 6 5 5 5 5 5 5 5 5 5 5 5 5
8 8 7 7 7 7 7 7 7 6 6 6 6 6 6 6 7 7 8 8 8 8 9 9 9 8 8 8 8 7 7 6 5 5 5 5 5 5 5 5 5 4 4
8 8 8 7 7 7 7 7 7 6 6 6 6 5 6 6 6 7 8 8 8 8 8 8 8 9 8 8 8 8 7 6 6 5 5 5 5 5 5 5 4 4 4
9 8 8 8 7 7 7 7 6 6 6 5 5 5 5 5 6 7 7 8 8 8 8 8 8 8 8 8 8 8 8 7 6 5 5 5 5 4 4 4 4 4 4
9 8 8 8 7 7 7 7 6 6 6 5 5 4 4 5 6 5 6 6 7 7 7 7 8 8 8 8 8 8 8 7 6 5 5 5 4 4 4 4 4 4 4
9 9 8 8 8 7 7 7 7 6 6 5 4 4 3 5 5 5 4 5 5 5 5 6 6 7 6 7 7 7 7 7 6 5 5 4 4 4 4 4 4 4 4
9 9 8 8 8 7 7 7 7 6 5 5 4 4 3 3 2 3 4 4 4 4 4 4 5 5 5 6 6 6 6 6 6 6 5 4 4 4 4 4 4 4 4
8 8 8 8 7 7 7 7 6 6 5 5 5 4 3 2 2 1 2 3 4 4 3 3 3 3 4 5 5 6 6 6 6 6 5 4 4 4 4 4 4 4 4
8 7 7 7 7 7 7 6 6 6 6 5 5 4 3 2 2 1 1 2 3 3 3 3 2 2 3 3 4 5 5 5 5 5 5 4 4 3 3 4 4 4 4
7 7 7 6 6 6 6 6 6 6 5 5 5 4 3 3 2 2 1 1 2 2 2 2 2 2 2 2 3 4 4 4 4 4 4 4 3 3 3 3 3 3 3
6 6 6 6 6 6 6 5 5 5 5 4 4 4 3 3 2 2 1 0 0 1 2 2 2 2 1 2 2 2 3 3 3 3 3 3 2 2 2 2 2 3 3
6 6 6 6 5 5 5 5 4 4 4 3 3 3 2 2 2 1 1 -0 -1 -1 1 2 2 2 1 1 1 1 1 1 2 2 2 1 1 1 1 1 1 1 2
5 5 5 5 5 5 4 4 4 3 3 2 2 2 1 1 1 0 -0 -1 -1 -2 -1 1 1 1 0 -0 -1 -1 -0 -0 0 0 0 0 -0 -0 -0 -0 0 1 1
5 5 4 4 4 4 3 3 3 2 2 1 1 1 0 0 -0 -1 -1 -1 -2 -2 -2 -1 -0 -0 -1 -1 -2 -2 -2 -2 -1 -1 -1 -1 -1 -1 -1 -1 -1 -0 0
4 4 4 4 3 3 3 2 1 1 0 0 -0 -0 -1 -1 -1 -2 -2 -2 -2 -2 -3 -2 -2 -1 -2 -2 -2 -3 -3 -3 -2 -2 -2 -2 -2 -2 -2 -1 -1 -1 -1
4 3 3 3 3 2 2 1 1 0 -0 -1 -1 -1 -2 -2 -2 -2 -3 -3 -3 -3 -3 -3 -3 -2 -3 -3 -3 -3 -3 -4 -3 -3 -3 -3 -3 -3 -3 -2 -2 -1 -1
3 3 3 2 2 2 1 1 0 -0 -1 -1 -2 -2 -3 -3 -3 -3 -3 -3 -3 -3 -3 -3 -3 -3 -3 -3 -3 -4 -4 -4 -4 -4 -4 -4 -3 -3 -3 -3 -2 -2 -2
2 2 2 2 1 1 1 -0 -1 -2 -2 -3 -3 -3 -3 -3 -3 -4 -4 -3 -3 -3 -3 -3 -3 -3 -3 -4 -4 -4 -4 -4 -4 -4 -4 -4 -4 -4 -4 -3 -3 -3 -3
2 1 1 0 0 -0 -0 -1 -2 -3 -4 -4 -4 -4 -4 -4 -4 -4 -4 -3 -3 -3 -3 -3 -3 -3 -3 -3 -3 -4 -4 -4 -4 -4 -4 -4 -4 -4 -4 -4 -4 -4 -3
1 0 -0 -1 -1 -1 -1 -2 -3 -4 -4 -5 -5 -4 -4 -4 -4 -4 -4 -4 -4 -4 -3 -3 -3 -3 -3 -3 -3 -4 -4 -4 -4 -4 -5 -5 -5 -5 -5 -5 -5 -4 -4
-1 -1 -1 -2 -2 -2 -2 -3 -4 -5 -5 -5 -5 -5 -5 -4 -4 -4 -4 -4 -4 -4 -4 -4 -4 -4 -4 -3 -4 -4 -4 -4 -4 -4 -5 -5 -5 -5 -5 -5 -5 -5 -5
-2 -2 -2 -3 -3 -3 -3 -4 -5 -5 -5 -5 -5 -5 -5 -5 -4 -4 -4 -4 -4 -4 -4 -4 -4 -4 -4 -4 -4 -4 -4 -4 -5 -5 -5 -5 -6 -6 -6 -6 -6 -5 -5
-3 -3 -3 -4 -4 -4 -4 -5 -5 -6 -5 -5 -5 -5 -5 -5 -4 -4 -4 -4 -4 -4 -4 -4 -4 -4 -4 -4 -4 -4 -4 -4 -5 -5 -5 -6 -6 -6 -6 -6 -6 -6 -5
Wind_Speed
10 10 10 10 10 10 10 10 11 11 12 12 12 12 13 13 13 13 12 14 17 18 19 19 19 19 19 18 18 17 17 16 16 15 14 13 12 12 11 10 9 9 8
12 11 11 11 12 12 12 12 13 12 12 12 13 14 15 16 15 16 15 15 18 21 22 23 23 23 22 22 21 21 20 20 19 19 18 17 16 15 14 13 12 12 11
14 13 12 12 13 13 14 13 14 13 12 12 14 16 16 17 17 18 18 17 17 20 24 26 26 26 26 25 25 24 24 23 23 22 21 20 20 19 18 17 16 15 14
16 15 13 13 14 13 13 12 11 11 12 12 13 12 14 15 18 19 19 19 18 18 21 26 28 29 29 29 28 28 27 26 26 25 25 24 23 22 21 20 19 18 17
17 16 14 14 15 13 12 11 11 12 13 13 13 13 13 14 16 18 20 21 21 21 21 22 28 31 32 32 32 31 30 30 29 29 28 27 26 25 24 23 22 21 20
15 16 14 16 15 11 11 12 13 13 13 13 13 14 15 15 16 16 18 20 21 23 24 24 23 25 32 35 35 35 34 33 32 31 31 30 29 28 27 26 25 24 23
15 14 13 14 13 11 13 14 13 14 13 11 11 12 15 18 19 17 16 17 19 22 23 24 22 22 21 29 35 37 37 36 35 35 34 33 32 31 30 29 28 26 25
14 14 14 12 12 11 14 14 14 12 10 9 8 9 10 11 13 14 14 15 16 16 18 21 22 22 21 20 23 32 37 38 38 37 36 36 35 34 33 32 30 29 28
12 13 14 13 12 12 12 13 13 14 12 11 10 9 8 8 8 7 11 12 13 13 14 16 20 22 23 22 21 25 31 36 38 39 39 38 37 36 35 34 33 31 30
9 11 12 13 12 11 13 13 13 12 13 12 11 12 14 11 10 9 9 11 13 15 16 15 16 20 22 22 23 26 28 31 34 37 39 39 39 38 38 37 35 34 33
6 8 10 11 11 10 13 13 13 14 12 14 13 12 13 14 15 13 16 16 15 15 16 17 16 17 21 23 22 26 30 32 33 35 37 38 39 40 39 38 37 36 35
4 6 8 9 10 10 12 12 13 15 14 16 14 13 14 12 12 14 17 18 17 16 16 15 16 16 19 22 25 28 31 32 33 34 35 37 39 40 40 39 39 38 36
5 6 6 8 9 10 11 12 13 14 15 17 17 15 15 16 15 16 17 19 20 18 18 16 16 16 18 21 23 27 31 33 34 34 35 36 37 38 39 39 39 38 37
7 8 9 9 11 12 12 12 12 14 14 16 18 18 15 16 16 16 17 17 19 20 19 21 16 17 17 19 22 24 25 30 33 34 35 35 36 37 38 39 39 38 37
8 10 10 11 12 12 13 13 12 15 15 16 17 18 17 16 16 16 16 16 17 20 22 22 18 17 15 17 20 21 23 27 30 32 33 34 35 36 37 38 38 38 37
10 11 12 13 13 14 14 14 14 15 16 17 15 18 18 16 16 16 16 17 17 19 21 21 18 17 15 14 19 21 23 26 29 30 31 32 33 35 36 37 37 38 37
12 12 13 14 15 15 15 15 16 17 18 18 18 19 20 20 17 16 16 17 17 17 21 24 20 18 20 19 18 18 20 20 20 27 29 31 32 33 34 35 36 37 37
12 13 14 15 16 16 16 17 18 18 19 19 20 20 21 17 20 18 17 19 18 18 19 25 23 19 20 19 18 19 17 16 18 23 26 28 29 31 32 34 35 36 36
14 14 15 16 16 17 17 18 18 19 19 20 20 20 20 20 20 18 19 18 17 17 17 20 23 19 16 15 16 17 19 17 18 20 24 27 29 30 31 32 33 34 34
15 15 16 16 17 17 16 17 17 18 19 19 19 20 20 20 20 20 18 19 18 18 17 18 20 18 16 15 14 15 16 15 16 15 18 20 23 27 30 31 31 31 31
15 16 17 17 17 15 13 13 14 18 20 20 20 20 20 23 25 22 18 16 16 16 16 17 18 17 16 14 14 13 15 15 16 14 14 14 14 15 17 24 29 30 30
16 16 17 18 18 15 20 24 22 20 20 20 20 20 20 21 24 28 30 29 26 19 17 17 17 18 18 17 15 14 14 14 13 10 13 14 12 13 13 13 20 25 28
17 18 18 18 19 20 23 25 25 21 20 20 20 19 17 17 22 18 22 26 27 30 28 21 20 20 19 16 15 16 16 16 16 12 9 11 11 13 12 14 22 24 26
17 17 18 19 20 20 24 25 25 21 19 19 19 19 19 19 18 18 16 17 18 19 22 19 16 17 18 16 14 15 15 16 15 12 11 10 11 12 12 12 19 24 25
18 18 18 19 20 21 23 24 24 17 16 18 18 18 19 19 23 25 20 18 19 16 21 26 27 25 27 27 21 12 12 12 13 12 11 9 10 11 11 11 14 20 23
18 18 18 18 20 20 22 23 24 14 15 16 16 17 21 22 24 26 19 17 18 17 15 15 17 20 19 19 22 14 11 12 10 9 11 10 9 8 7 10 11 11 14
Wind_Direction
221 223 229 230 234 236 237 242 246 250 251 254 253 255 257 256 255 254 255 250 251 255 258 260 262 261 258 253 251 249 248 248 248 248 247 247 247 248 249 252 255 259 262
228 230 236 237 241 241 245 248 252 256 257 256 258 257 258 258 256 254 253 253 248 249 252 255 257 258 259 257 253 248 246 245 245 245 245 245 245 245 246 247 249 252 255
233 236 242 243 245 246 247 250 256 259 261 261 261 260 259 257 256 255 254 252 251 247 247 249 252 254 256 257 256 252 248 245 243 243 243 243 243 243 244 244 246 247 249
237 240 244 248 250 250 248 249 253 255 257 259 262 263 259 257 257 256 254 250 248 248 246 245 247 249 251 252 253 253 251 247 244 242 242 241 241 241 241 242 243 244 246
240 241 247 252 254 250 249 251 254 256 262 264 265 266 264 261 259 257 254 251 247 246 247 247 245 246 247 249 250 250 250 248 246 243 241 240 239 239 240 240 241 241 243
242 244 249 253 255 250 250 252 255 258 260 268 274 272 268 264 259 255 255 254 249 246 245 246 246 246 245 246 247 247 248 248 246 244 242 240 239 238 238 239 239 239 240
246 245 249 254 251 249 252 256 258 261 261 264 272 276 269 259 253 251 250 250 249 246 244 244 244 245 246 245 244 245 245 246 245 244 243 240 239 237 237 237 237 238 239
251 248 249 252 252 252 255 257 257 257 260 251 253 279 286 279 253 240 244 245 248 248 245 243 242 242 243 245 244 244 244 245 245 244 243 241 239 238 237 236 236 236 237
256 252 253 255 256 254 256 257 254 250 254 255 238 246 269 277 302 256 239 243 246 247 246 245 243 241 240 240 243 243 243 244 245 245 244 242 240 239 237 236 235 235 236
263 258 257 257 258 256 256 257 254 252 251 256 253 239 244 262 275 285 262 249 250 253 255 252 249 246 242 241 239 239 241 243 245 246 245 244 242 240 238 236 235 234 234
273 266 262 261 259 258 258 259 257 253 247 248 251 251 248 250 250 256 273 274 267 258 253 253 255 252 248 244 242 241 241 242 244 245 246 245 243 242 240 237 235 234 233
291 277 269 264 262 260 260 260 259 256 252 250 250 249 250 249 248 250 263 270 272 269 264 255 251 252 252 250 247 244 244 245 245 246 246 246 245 243 242 240 237 235 234
303 300 285 274 269 264 263 263 261 259 256 253 252 251 250 249 253 257 264 272 275 275 271 264 256 252 251 250 251 248 248 248 248 247 246 246 245 244 243 241 240 238 236
302 302 293 283 278 274 269 265 264 261 260 257 256 254 254 253 252 252 256 267 275 277 271 266 258 250 250 251 251 248 252 251 250 249 247 246 245 244 243 242 241 240 239
299 296 293 288 283 279 275 273 267 267 265 262 261 259 257 257 255 254 254 253 260 273 276 274 270 262 251 249 251 252 253 253 252 251 249 247 244 243 242 241 240 240 239
298 295 294 291 288 284 280 276 273 272 271 268 266 264 262 261 260 257 255 254 252 257 270 273 272 271 265 256 255 255 256 257 255 253 252 250 247 244 243 241 240 239 238
299 296 295 293 290 288 285 281 277 277 274 273 270 267 265 265 265 262 259 256 254 252 260 271 271 270 267 262 258 256 258 258 257 253 252 252 250 247 244 242 241 239 237
298 296 294 291 289 287 285 283 281 279 277 275 274 272 271 270 267 266 263 260 258 255 256 267 273 272 269 265 261 258 257 258 258 257 254 253 252 250 247 244 242 240 238
298 296 294 291 289 287 286 284 282 281 280 278 277 275 274 273 270 268 266 264 263 261 258 262 269 272 270 265 262 258 257 257 259 259 256 253 252 251 249 246 243 240 238
297 296 294 291 289 286 283 282 282 281 280 277 275 273 272 270 268 268 268 266 265 264 262 262 266 269 267 262 256 256 256 252 253 254 254 252 251 251 249 247 245 242 240
295 294 292 291 289 286 279 276 277 279 280 279 277 274 271 269 267 267 266 263 260 260 260 260 262 264 262 256 250 248 251 254 253 249 250 248 248 246 244 245 244 243 241
296 295 293 292 290 287 286 288 288 286 285 283 282 280 277 274 273 273 272 271 267 262 259 258 260 259 259 254 250 245 246 249 253 239 238 243 237 241 241 238 239 240 241
299 297 295 293 292 290 291 291 291 291 287 285 284 283 281 278 278 274 274 275 275 274 271 268 265 263 263 257 251 246 241 240 245 241 233 243 236 239 238 238 239 237 238
299 298 297 296 295 293 294 295 297 294 288 285 283 283 283 282 280 278 274 271 268 267 267 268 265 267 266 264 254 248 247 246 248 243 226 240 239 239 237 236 238 238 239
300 299 298 297 295 296 296 298 298 294 289 286 285 283 283 282 282 283 281 276 275 271 269 266 264 263 262 260 254 244 237 237 243 237 219 226 238 239 238 237 234 233 236
299 299 296 296 295 295 296 297 297 293 291 290 288 285 283 282 283 284 282 280 280 279 275 272 268 266 266 266 264 247 236 236 238 237 213 211 226 223 237 234 230 227 230
Height
1561 1561 1562 1562 1562 1562 1561 1561 1561 1560 1559 1558 1557 1556 1555 1554 1553 1552 1551 1550 1550 1549 1548 1548 1547 1547 1547 1547 1546 1545 1544 1544 1543 1542 1542 1541 1541 1540 1539 1539 1538 1538 1537
1558 1558 1558 1558 1559 1558 1558 1558 1557 1556 1555 1554 1553 1552 1551 1550 1548 1547 1546 1545 1545 1544 1543 1543 1542 1542 1542 1542 1542 1541 1540 1540 1539 1539 1538 1538 1537 1537 1536 1536 1535 1535 1534
1554 1554 1555 1555 1555 1554 1554 1553 1552 1551 1550 1549 1547 1546 1545 1544 1543 1541 1540 1539 1538 1538 1537 1537 1536 1536 1536 1536 1536 1536 1536 1535 1535 1534 1534 1533 1533 1532 1532 1532 1531 1531 1531
1550 1550 1550 1550 1550 1550 1549 1548 1547 1546 1544 1543 1541 1540 1538 1536 1535 1534 1533 1531 1531 1530 1530 1530 1529 1529 1529 1529 1529 1529 1529 1529 1529 1528 1528 1528 1528 1528 1527 1527 1527 1527 1527
1545 1545 1545 1545 1545 1544 1543 1542 1541 1540 1538 1537 1535 1532 1530 1528 1526 1525 1524 1523 1522 1521 1521 1521 1521 1521 1520 1520 1520 1521 1521 1522 1522 1522 1522 1522 1522 1522 1522 1522 1522 1522 1522
1540 1540 1539 1539 1539 1538 1537 1536 1535 1534 1532 1530 1528 1524 1522 1519 1517 1515 1514 1514 1513 1512 1511 1511 1511 1510 1510 1510 1511 1511 1512 1513 1513 1514 1514 1514 1514 1515 1515 1515 1516 1516 1516
1534 1534 1533 1533 1533 1531 1530 1530 1528 1526 1525 1524 1520 1516 1513 1511 1507 1505 1504 1504 1503 1503 1501 1501 1500 1499 1499 1499 1500 1500 1501 1502 1503 1504 1505 1506 1506 1507 1507 1508 1509 1509 1510
1530 1529 1528 1527 1526 1525 1524 1523 1522 1520 1518 1518 1515 1512 1507 1504 1500 1496 1494 1494 1493 1493 1491 1490 1489 1488 1487 1487 1487 1489 1489 1490 1492 1494 1495 1496 1497 1498 1499 1500 1501 1502 1503
1525 1524 1523 1522 1521 1519 1518 1517 1516 1514 1511 1511 1509 1507 1504 1498 1495 1490 1487 1485 1484 1483 1482 1480 1479 1478 1477 1476 1476 1476 1478 1478 1479 1481 1484 1486 1487 1489 1490 1491 1492 1494 1495
1522 1520 1519 1518 1516 1514 1512 1511 1509 1507 1505 1503 1502 1499 1497 1494 1492 1483 1482 1479 1476 1473 1472 1470 1468 1467 1466 1465 1464 1465 1466 1467 1467 1468 1470 1473 1476 1478 1480 1481 1483 1484 1486
1518 1517 1515 1513 1511 1509 1507 1506 1503 1501 1498 1496 1494 1492 1489 1486 1483 1478 1471 1471 1470 1466 1463 1460 1458 1456 1455 1454 1452 1452 1454 1455 1455 1456 1457 1460 1463 1466 1469 1471 1473 1475 1477
1515 1513 1511 1509 1507 1504 1502 1500 1497 1494 1492 1489 1486 1484 1481 1479 1475 1471 1465 1461 1459 1457 1456 1452 1448 1446 1444 1443 1441 1441 1441 1442 1443 1443 1444 1446 1449 1453 1456 1460 1462 1465 1467
1511 1509 1506 1504 1501 1499 1496 1493 1490 1487 1484 1481 1478 1475 1472 1469 1467 1463 1459 1452 1449 1446 1445 1443 1440 1437 1434 1432 1430 1429 1429 1430 1430 1431 1431 1433 1435 1439 1443 1447 1451 1454 1457
1506 1504 1501 1498 1495 1492 1489 1485 1482 1479 1476 1472 1469 1466 1463 1459 1457 1454 1450 1446 1439 1434 1433 1431 1430 1427 1424 1422 1420 1419 1418 1418 1418 1418 1419 1420 1423 1425 1429 1434 1438 1442 1445
1501 1498 1495 1492 1488 1485 1481 1477 1473 1470 1467 1463 1459 1456 1453 1449 1447 1444 1441 1438 1435 1426 1418 1418 1420 1419 1416 1413 1410 1409 1408 1407 1407 1407 1408 1409 1411 1413 1416 1420 1425 1429 1433
1496 1492 1489 1485 1481 1477 1473 1469 1465 1461 1457 1453 1450 1446 1442 1439 1436 1433 1430 1427 1424 1419 1409 1403 1406 1408 1407 1403 1401 1400 1398 1397 1396 1396 1396 1397 1399 1402 1404 1408 1412 1416 1420
1490 1486 1481 1477 1473 1469 1465 1460 1456 1452 1447 1443 1440 1436 1432 1429 1426 1423 1420 1417 1414 1410 1402 1392 1394 1396 1396 1394 1392 1390 1389 1387 1386 1385 1386 1387 1388 1390 1393 1396 1400 1404 1408
1483 1478 1474 1469 1464 1460 1455 1451 1446 1442 1437 1433 1429 1425 1421 1419 1415 1412 1409 1405 1403 1400 1396 1386 1381 1384 1385 1384 1383 1381 1379 1378 1376 1375 1375 1376 1377 1379 1382 1385 1388 1392 1396
1475 1471 1466 1461 1456 1451 1446 1441 1436 1431 1426 1422 1418 1414 1410 1407 1403 1401 1398 1395 1392 1390 1387 1381 1373 1374 1374 1374 1373 1371 1369 1368 1366 1365 1365 1365 1366 1368 1371 1373 1377 1380 1384
1468 1463 1457 1452 1446 1441 1436 1431 1425 1420 1414 1410 1406 1402 1398 1395 1392 1389 1386 1384 1382 1379 1376 1372 1366 1364 1364 1364 1363 1361 1359 1358 1356 1355 1355 1354 1355 1356 1359 1362 1365 1369 1372
1459 1454 1448 1442 1437 1431 1425 1420 1414 1408 1403 1398 1394 1391 1388 1384 1381 1379 1376 1373 1371 1368 1365 1362 1357 1355 1353 1354 1352 1351 1349 1348 1346 1347 1345 1344 1345 1346 1347 1350 1353 1357 1361
1451 1445 1439 1432 1426 1421 1415 1410 1405 1399 1394 1389 1384 1380 1377 1374 1371 1368 1365 1363 1361 1358 1354 1351 1347 1345 1343 1344 1343 1342 1341 1339 1338 1338 1337 1336 1336 1336 1337 1339 1341 1345 1349
1442 1436 1430 1423 1417 1411 1406 1400 1395 1390 1384 1379 1375 1371 1367 1364 1362 1358 1354 1352 1349 1347 1345 1342 1337 1334 1334 1334 1334 1332 1331 1329 1329 1330 1330 1328 1329 1328 1329 1330 1333 1335 1339
1434 1427 1420 1414 1407 1401 1396 1391 1385 1380 1375 1370 1367 1363 1359 1355 1352 1349 1345 1341 1338 1335 1333 1331 1328 1325 1324 1324 1323 1323 1322 1321 1321 1322 1322 1321 1322 1322 1322 1323 1324 1326 1329
1425 1418 1412 1405 1398 1392 1387 1382 1377 1372 1366 1362 1358 1355 1351 1347 1343 1341 1336 1331 1327 1324 1323 1320 1318 1316 1314 1314 1314 1313 1312 1312 1311 1312 1313 1313 1314 1315 1316 1316 1317 1319 1321
1416 1409 1402 1396 1390 1384 1379 1374 1370 1365 1359 1355 1350 1346 1343 1339 1335 1332 1328 1323 1319 1315 1313 1310 1308 1306 1304 1304 1304 1304 1303 1303 1303 1303 1303 1305 1306 1309 1309 1309 1310 1312 1314